Location: Melizzano
(41.1500°N, 14.5000°E)
Time: 00:06:33
(UTC+00:00)

Daily predictions for brighter satellites

Satellite Brightness Start Highest point End
(mag) Time Altitude Azimuth Time Altitude Azimuth Time Altitude Azimuth
Cosmos 2082 Rocket 4.2 02:08:03 24° ENE 02:08:03 24° ENE 02:10:58 10° NE
Cosmos 1980 Rocket 4.0 02:14:46 26° NE 02:15:06 27° NE 02:19:51 10° ESE
Cosmos 1833 Rocket 4.4 02:32:37 26° NNE 02:32:37 26° NNE 02:35:01 10° NNE
BREEZE-M DEB (TANK) 4.3 02:45:51 63° N 02:46:30 67° NNE 03:04:12 10° ESE
CZ-2C R/B 4.2 02:46:22 10° NNE 02:48:27 25° NNE 02:48:27 25° NNE
Lacrosse 5 4.3 02:57:41 14° N 02:57:41 14° N 02:59:37 10° NNE
ALOS 3.0 03:04:15 10° NNE 03:08:41 51° E 03:08:41 51° E
NOSS 3-1 (C) 4.4 03:19:38 31° NNW 03:19:38 31° NNW 03:24:16 10° NNE
Cosmos 1484 Rocket 4.4 03:19:05 10° NNE 03:21:06 29° NE 03:21:06 29° NE
Cosmos 2278 3.7 03:21:45 29° NNW 03:24:49 83° ENE 03:30:32 10° SSE
Cosmos 292 Rocket 3.9 03:24:33 64° NNE 03:25:09 74° ENE 03:29:57 10° SSE
X-37B 3.0 03:31:20 23° NE 03:31:20 23° NE 03:32:49 10° ENE
BREEZE-M DEB (TANK) 3.5 03:29:32 70° W 03:29:59 76° NNW 03:33:16 10° NE
Meteor 2-15 4.3 03:27:38 39° SSW 03:30:07 82° W 03:36:19 10° N
CBERS 1 LM4 rocket 4.5 03:27:39 10° NNE 03:32:35 75° ESE 03:34:28 37° S
Cosmos 2221 4.0 03:29:27 10° SSE 03:33:30 37° E 03:37:33 10° NNE
Meteor 1-27 4.0 03:32:49 44° SSW 03:34:42 83° W 03:40:18 10° N
Cosmos 1932 4.3 03:32:30 22° NNW 03:36:41 88° NE 03:42:53 10° SSE
Cosmos 1869 4.1 03:38:25 42° N 03:38:25 42° N 03:41:08 10° N
Genesis I 4.4 03:40:11 33° N 03:40:11 33° N 03:42:33 10° NNE
H-2A R/B 2.2 03:35:11 10° SSE 03:39:33 75° ENE 03:43:50 10° N
SeaSat 1 2.3 03:35:00 10° SSE 03:39:55 76° WSW 03:41:24 45° NW
SL-08 ROCKET BODY 4.4 03:41:04 10° N 03:47:11 88° E 03:53:20 10° S
ISS -2.7 03:50:13 39° NNE 03:50:13 39° NNE 03:52:39 10° NE
FENGYUN 3A 3.6 03:44:33 10° N 03:49:56 63° WNW 03:52:11 34° SW
Cosmos 2082 Rocket 2.7 03:49:55 39° WNW 03:49:56 39° WNW 03:55:18 10° N
NOSS 2-2 (E) 3.3 03:50:34 55° SSE 03:50:59 62° ESE 03:54:37 10° NE
SL-08 R/B 4.3 03:48:00 10° N 03:54:12 78° W 04:00:18 10° S
USA 229 DEB 4.4 03:54:21 30° WNW 03:55:35 32° NW 04:01:40 10° NNE
USA 229 4.4 03:54:26 30° WNW 03:55:40 33° NW 04:01:46 10° NNE
Meteor 2-3 Rocket 4.0 03:53:51 10° NNW 03:59:12 43° W 04:04:36 10° SSW
Cosmos 1980 Rocket 2.4 03:56:42 28° NW 03:59:20 48° WSW 04:04:45 10° S
SL-27 R/B 4.3 04:01:33 10° SSE 04:04:42 32° ESE 04:07:54 10° NE
Iridium 4 Rocket 3.8 04:03:36 35° WSW 04:04:48 40° W 04:09:26 10° NNW
CZ-4B R/B 2.2 04:02:55 10° SSE 04:06:04 48° ENE 04:09:09 10° N
ATLAS CENTAUR R/B 2.4 04:04:53 10° NNW 04:08:45 44° NE 04:12:51 10° SE
Cosmos 2322 Rocket 3.3 04:03:23 10° NNW 04:08:50 46° ENE 04:14:15 10° SE
NOSS 3-1 (A) 4.4 04:10:51 24° WNW 04:12:17 26° NW 04:17:35 10° NNE
METEOR-M 4.2 04:07:08 10° N 04:12:19 53° WNW 04:17:29 10° SSW
Cosmos 1833 Rocket 4.4 04:14:19 15° NW 04:14:19 15° NW 04:17:16 10° NNW
ADEOS 3.5 04:09:02 10° N 04:14:15 71° WNW 04:19:27 10° SSW
COSMO-SKYMED 1 2.6 04:11:15 10° SSE 04:15:35 81° ENE 04:19:56 10° N
Cosmos 1110 Rocket 4.1 04:11:45 10° NNW 04:16:54 54° WSW 04:21:58 10° S
Meteor 2-2 Rocket 4.3 04:11:04 10° SSW 04:16:59 81° W 04:23:03 10° N
Cosmos 2315 Rocket 4.4 04:13:26 10° S 04:19:35 66° E 04:25:44 10° NNE
CZ-4B R/B 3.6 04:15:34 10° NNE 04:19:56 65° E 04:24:23 10° S
CSL-04 DEB 4.3 04:17:26 10° S 04:21:33 78° WSW 04:25:35 10° NNW
Cosmos 1862 3.2 04:22:02 10° N 04:26:06 78° W 04:30:08 10° S
Cosmos 1743 Rocket 3.6 04:22:05 10° N 04:26:35 84° E 04:31:04 10° S
ERS-2 3.5 04:24:31 10° SE 04:27:55 40° ENE 04:31:21 10° N
SL-16 R/B 2.3 04:23:01 10° NNW 04:28:44 84° ENE 04:34:24 10° SSE
CZ-2C R/B 4.2 04:26:22 10° NNW 04:27:51 13° NW 04:27:51 13° NW
CREW DRAGON DEMO-1 DEB 2.7 04:28:39 28° NW 04:29:58 72° NE 04:32:49 10° ESE
Cosmos 1553 Rocket 4.5 04:24:12 10° SW 04:30:06 38° WNW 04:35:58 10° N
Meteor 1-4 Rocket 2.5 04:26:36 10° SSW 04:30:19 73° W 04:34:03 10° N
Meteor 1-31 Rocket 3.1 04:27:08 10° N 04:30:50 42° WNW 04:34:30 10° SW
Cosmos 883 Rocket 4.4 04:28:04 10° S 04:34:16 79° W 04:40:27 10° N
NOSS 2-2 (D) 3.2 04:34:44 20° WSW 04:36:55 51° NW 04:40:30 10° NNE
Cosmos 1606 2.8 04:34:49 10° S 04:38:40 79° E 04:42:34 10° N
Cosmos 1461 4.4 04:39:20 18° WSW 04:39:31 18° WSW 04:42:25 10° SSW
CZ-3 R/B 4.1 04:33:20 10° SW 04:41:17 18° S 04:45:33 10° SE
Lacrosse 5 4.1 04:38:47 10° NNW 04:41:56 16° NNE 04:45:03 10° NE
ALOS 3.8 04:42:47 10° NNW 04:45:48 17° WNW 04:47:11 15° W
Lacrosse 4 Rocket 4.0 04:43:26 10° N 04:46:49 21° NE 04:50:10 10° E
Cosmos 1269 Rocket 4.3 04:43:00 10° SW 04:48:02 44° WNW 04:53:06 10° N
PSLV R/B 4.1 04:44:38 10° SSE 04:48:51 83° ENE 04:53:05 10° NNW
SAR-Lupe-1 4.3 04:49:55 10° SSE 04:53:28 74° ENE 04:57:03 10° N
Cosmos 1689 Rocket 2.0 04:55:07 10° SSE 04:57:56 83° ENE 05:00:46 10° N
deb Chang Zheng 4 3.7 04:55:23 10° N 04:59:30 49° WNW 05:03:37 10° SW
MOS 1 Rocket 3.8 04:57:19 10° SSW 05:01:07 31° W 05:05:00 10° NNW
SKYMED 2 4.4 04:59:57 10° SSW 05:03:44 29° W 05:07:33 10° NW
Cosmos 1500 Rocket 4.1 05:02:25 10° NNW 05:06:20 34° W 05:10:14 10° SSW
X-37B 1.0 05:03:38 10° WNW 05:06:46 55° NNE 05:09:53 10° E
H-2A R/B 3.4 05:07:01 10° N 05:10:35 34° WNW 05:14:08 10° SW
Cosmos 2221 3.9 05:08:07 10° WSW 05:11:11 18° WNW 05:14:15 10° NNW
DMSP B5D1-3 4.5 05:08:08 10° S 05:13:12 72° WSW 05:18:19 10° NNW
Cosmos 2333 Rocket 3.7 05:09:09 10° N 05:14:33 40° ENE 05:19:56 10° SE
Sich 1 3.0 05:10:22 10° NNW 05:14:48 74° W 05:19:12 10° S
Iridium 51 4.3 05:10:37 10° N 05:14:53 73° W 05:18:45 10° S
H-2A R/B 3.4 05:05:48 10° WSW 05:16:42 34° SSW 05:20:03 10° SE
